Torna al catalogo

FENGYUN 1C DEB

LostPO
NORAD 37684·DEBRIS·🇨🇳 China

Lanciato May 10, 1999 da Taiyuan Satellite Launch Center

Loading…

Prossimi Passaggi (prossime 24 ore)

TLE

ObsoletoSource: Space-Track

Epoca: Mar 24, 2013, 22:12 UTC

1 37684U 99025EKZ 13083.92515196  .00001478  00000-0  13104-2 0  9997
2 37684  98.1651 128.1287 0252308 130.2246 354.4399 13.72645189272337

Traccia FENGYUN 1C DEB in tempo reale con AllMySat

Download on the App Store